Time,TemperatureF,DewpointF,PressureIn,WindDirection,WindDirectionDegrees,WindSpeedMPH,WindSpeedGustMPH,Humidity,HourlyPrecipIn,Conditions,Clouds,dailyrainin,SoftwareType,DateUTC
2013-09-12 00:02:00,75.9,55.4,29.67,WNW,288,2.0,3.0,49,0.00,,,0.00,Wunderground v.1.15,2013-09-12 07:02:00,
2013-09-12 00:08:00,76.2,55.6,29.67,NNW,342,2.0,4.0,49,0.00,,,0.00,Wunderground v.1.15,2013-09-12 07:08:00,
2013-09-12 00:14:00,76.3,56.3,29.67,NW,314,3.0,7.0,50,0.00,,,0.00,Wunderground v.1.15,2013-09-12 07:14:00,
2013-09-12 00:19:00,76.5,56.5,29.67,WNW,303,4.0,7.0,50,0.00,,,0.00,Wunderground v.1.15,2013-09-12 07:19:00,
2013-09-12 00:25:00,76.6,56.6,29.66,NW,310,5.0,7.0,50,0.00,,,0.00,Wunderground v.1.15,2013-09-12 07:25:00,
2013-09-12 00:30:00,76.6,56.6,29.67,WNW,300,6.0,7.0,50,0.00,,,0.00,Wunderground v.1.15,2013-09-12 07:30:00,
2013-09-12 00:36:00,76.5,56.5,29.66,NW,323,5.0,7.0,50,0.00,,,0.00,Wunderground v.1.15,2013-09-12 07:36:00,
2013-09-12 00:41:00,76.5,55.9,29.67,West,267,4.0,5.0,49,0.00,,,0.00,Wunderground v.1.15,2013-09-12 07:41:00,
2013-09-12 00:47:00,76.4,56.4,29.67,WNW,297,3.0,5.0,50,0.00,,,0.00,Wunderground v.1.15,2013-09-12 07:47:00,
2013-09-12 00:53:00,75.8,56.4,29.67,ESE,107,2.0,3.0,51,0.00,,,0.00,Wunderground v.1.15,2013-09-12 07:53:00,
2013-09-12 00:58:00,74.6,56.3,29.67,NE,44,2.0,3.0,53,0.00,,,0.00,Wunderground v.1.15,2013-09-12 07:58:00,
2013-09-12 01:03:00,73.8,56.6,29.67,ENE,63,2.0,2.0,55,0.00,,,0.00,Wunderground v.1.15,2013-09-12 08:03:00,
2013-09-12 01:09:00,73.2,56.6,29.67,WNW,282,1.0,2.0,56,0.00,,,0.00,Wunderground v.1.15,2013-09-12 08:09:00,
2013-09-12 01:15:00,73.0,56.4,29.67,WNW,295,1.0,1.0,56,0.00,,,0.00,Wunderground v.1.15,2013-09-12 08:15:00,
2013-09-12 01:20:00,72.8,56.2,29.67,WNW,297,0.0,0.0,56,0.00,,,0.00,Wunderground v.1.15,2013-09-12 08:20:00,
2013-09-12 01:26:00,72.4,56.3,29.67,WNW,296,0.0,0.0,57,0.00,,,0.00,Wunderground v.1.15,2013-09-12 08:26:00,
2013-09-12 01:31:00,72.5,56.4,29.67,WNW,297,0.0,0.0,57,0.00,,,0.00,Wunderground v.1.15,2013-09-12 08:31:00,
2013-09-12 01:37:00,72.3,56.2,29.66,WNW,296,0.0,1.0,57,0.00,,,0.00,Wunderground v.1.15,2013-09-12 08:37:00,
2013-09-12 01:42:00,72.8,56.2,29.66,West,260,0.0,1.0,56,0.00,,,0.00,Wunderground v.1.15,2013-09-12 08:42:00,
2013-09-12 01:48:00,72.7,56.6,29.66,WSW,249,1.0,1.0,57,0.00,,,0.00,Wunderground v.1.15,2013-09-12 08:48:00,
2013-09-12 01:54:00,73.1,56.5,29.66,WSW,249,0.0,1.0,56,0.00,,,0.00,Wunderground v.1.15,2013-09-12 08:54:00,
2013-09-12 01:59:00,72.7,56.6,29.66,East,90,1.0,2.0,57,0.00,,,0.00,Wunderground v.1.15,2013-09-12 08:59:00,
2013-09-12 02:05:00,71.9,56.3,29.66,NE,56,1.0,2.0,58,0.00,,,0.00,Wunderground v.1.15,2013-09-12 09:05:00,
2013-09-12 02:10:00,71.9,56.8,29.65,NW,316,1.0,1.0,59,0.00,,,0.00,Wunderground v.1.15,2013-09-12 09:10:00,
2013-09-12 02:16:00,72.2,56.6,29.65,WNW,283,1.0,1.0,58,0.00,,,0.00,Wunderground v.1.15,2013-09-12 09:16:00,
2013-09-12 02:22:00,72.0,56.4,29.65,North,355,1.0,2.0,58,0.00,,,0.00,Wunderground v.1.15,2013-09-12 09:22:00,
2013-09-12 02:28:00,72.7,56.6,29.65,WNW,282,1.0,2.0,57,0.00,,,0.00,Wunderground v.1.15,2013-09-12 09:28:00,
2013-09-12 02:33:00,73.0,56.4,29.65,SSW,197,1.0,2.0,56,0.00,,,0.00,Wunderground v.1.15,2013-09-12 09:33:00,
2013-09-12 02:38:00,73.1,56.5,29.65,West,266,2.0,2.0,56,0.00,,,0.00,Wunderground v.1.15,2013-09-12 09:38:00,
2013-09-12 02:44:00,73.8,56.1,29.65,WSW,248,2.0,2.0,54,0.00,,,0.00,Wunderground v.1.15,2013-09-12 09:44:00,
2013-09-12 02:49:00,74.5,57.3,29.65,WNW,298,2.0,6.0,55,0.00,,,0.00,Wunderground v.1.15,2013-09-12 09:49:00,
2013-09-12 02:55:00,74.7,56.9,29.65,WNW,290,3.0,4.0,54,0.00,,,0.00,Wunderground v.1.15,2013-09-12 09:55:00,
2013-09-12 03:00:00,74.6,56.9,29.65,North,4,3.0,3.0,54,0.00,,,0.00,Wunderground v.1.15,2013-09-12 10:00:00,
2013-09-12 03:06:00,75.2,57.4,29.65,North,359,4.0,9.0,54,0.00,,,0.00,Wunderground v.1.15,2013-09-12 10:06:00,
2013-09-12 03:12:00,74.2,57.0,29.65,SW,219,3.0,4.0,55,0.00,,,0.00,Wunderground v.1.15,2013-09-12 10:12:00,
2013-09-12 03:17:00,73.5,56.8,29.65,West,264,3.0,4.0,56,0.00,,,0.00,Wunderground v.1.15,2013-09-12 10:17:00,
2013-09-12 03:23:00,73.6,56.9,29.64,NW,317,1.0,3.0,56,0.00,,,0.00,Wunderground v.1.15,2013-09-12 10:23:00,
2013-09-12 03:28:00,74.3,57.6,29.64,NNW,338,2.0,6.0,56,0.00,,,0.00,Wunderground v.1.15,2013-09-12 10:28:00,
2013-09-12 03:34:00,74.8,57.5,29.64,NNW,333,5.0,6.0,55,0.00,,,0.00,Wunderground v.1.15,2013-09-12 10:34:00,
2013-09-12 03:39:00,75.0,57.2,29.64,North,1,6.0,7.0,54,0.00,,,0.00,Wunderground v.1.15,2013-09-12 10:39:00,
2013-09-12 03:45:00,75.0,57.2,29.64,NNE,15,5.0,6.0,54,0.00,,,0.00,Wunderground v.1.15,2013-09-12 10:45:00,
2013-09-12 03:50:00,74.9,57.6,29.64,NNE,23,3.0,3.0,55,0.00,,,0.00,Wunderground v.1.15,2013-09-12 10:50:00,
2013-09-12 03:56:00,74.1,56.9,29.64,SSE,160,3.0,5.0,55,0.00,,,0.00,Wunderground v.1.15,2013-09-12 10:56:00,
2013-09-12 04:02:00,72.4,56.3,29.65,ENE,75,2.0,2.0,57,0.00,,,0.00,Wunderground v.1.15,2013-09-12 11:02:00,
2013-09-12 04:07:00,71.9,56.3,29.65,North,10,1.0,2.0,58,0.00,,,0.00,Wunderground v.1.15,2013-09-12 11:07:00,
2013-09-12 04:13:00,71.6,56.5,29.65,NNW,342,1.0,1.0,59,0.00,,,0.00,Wunderground v.1.15,2013-09-12 11:13:00,
2013-09-12 04:18:00,71.8,56.7,29.64,NW,310,0.0,1.0,59,0.00,,,0.00,Wunderground v.1.15,2013-09-12 11:18:00,
2013-09-12 04:24:00,72.0,56.9,29.64,NNE,30,0.0,0.0,59,0.00,,,0.00,Wunderground v.1.15,2013-09-12 11:24:00,
2013-09-12 04:29:00,72.2,57.1,29.65,WNW,283,0.0,0.0,59,0.00,,,0.00,Wunderground v.1.15,2013-09-12 11:29:00,
2013-09-12 04:35:00,72.7,57.1,29.65,WSW,252,0.0,2.0,58,0.00,,,0.00,Wunderground v.1.15,2013-09-12 11:35:00,
2013-09-12 04:40:00,73.1,57.0,29.65,West,263,1.0,1.0,57,0.00,,,0.00,Wunderground v.1.15,2013-09-12 11:40:00,
2013-09-12 04:46:00,72.7,57.1,29.65,WNW,293,1.0,2.0,58,0.00,,,0.00,Wunderground v.1.15,2013-09-12 11:46:00,
2013-09-12 04:52:00,72.7,57.1,29.65,West,260,1.0,2.0,58,0.00,,,0.00,Wunderground v.1.15,2013-09-12 11:52:00,
2013-09-12 04:58:00,72.0,56.9,29.65,SSW,199,0.0,2.0,59,0.00,,,0.00,Wunderground v.1.15,2013-09-12 11:58:00,
2013-09-12 05:03:00,71.6,57.0,29.65,WSW,238,1.0,5.0,60,0.00,,,0.00,Wunderground v.1.15,2013-09-12 12:03:00,
2013-09-12 05:09:00,71.8,57.2,29.65,NNE,13,3.0,5.0,60,0.00,,,0.00,Wunderground v.1.15,2013-09-12 12:09:00,
2013-09-12 05:15:00,71.9,57.3,29.65,West,274,3.0,3.0,60,0.00,,,0.00,Wunderground v.1.15,2013-09-12 12:15:00,
2013-09-12 05:20:00,72.1,57.0,29.65,North,6,2.0,2.0,59,0.00,,,0.00,Wunderground v.1.15,2013-09-12 12:20:00,
2013-09-12 05:26:00,72.4,57.3,29.65,WNW,295,2.0,3.0,59,0.00,,,0.00,Wunderground v.1.15,2013-09-12 12:26:00,
2013-09-12 05:31:00,73.0,57.3,29.65,SW,231,2.0,2.0,58,0.00,,,0.00,Wunderground v.1.15,2013-09-12 12:31:00,
2013-09-12 05:37:00,72.6,57.0,29.65,SW,233,1.0,2.0,58,0.00,,,0.00,Wunderground v.1.15,2013-09-12 12:37:00,
2013-09-12 05:42:00,72.4,56.8,29.65,SW,233,1.0,1.0,58,0.00,,,0.00,Wunderground v.1.15,2013-09-12 12:42:00,
2013-09-12 05:48:00,72.7,57.1,29.65,SW,233,0.0,1.0,58,0.00,,,0.00,Wunderground v.1.15,2013-09-12 12:48:00,
2013-09-12 05:53:00,72.5,56.9,29.65,SW,233,0.0,0.0,58,0.00,,,0.00,Wunderground v.1.15,2013-09-12 12:53:00,
2013-09-12 05:59:00,72.3,57.2,29.65,West,276,0.0,0.0,59,0.00,,,0.00,Wunderground v.1.15,2013-09-12 12:59:00,
2013-09-12 06:04:00,72.4,57.3,29.65,NW,311,0.0,1.0,59,0.00,,,0.00,Wunderground v.1.15,2013-09-12 13:04:00,
2013-09-12 06:10:00,72.6,57.0,29.65,NW,312,1.0,1.0,58,0.00,,,0.00,Wunderground v.1.15,2013-09-12 13:10:00,
2013-09-12 06:16:00,72.6,57.0,29.65,West,281,1.0,1.0,58,0.00,,,0.00,Wunderground v.1.15,2013-09-12 13:16:00,
2013-09-12 06:21:00,72.8,57.2,29.65,West,281,1.0,1.0,58,0.00,,,0.00,Wunderground v.1.15,2013-09-12 13:21:00,
2013-09-12 06:26:00,73.0,56.9,29.66,WSW,257,0.0,1.0,57,0.00,,,0.00,Wunderground v.1.15,2013-09-12 13:26:00,
2013-09-12 06:32:00,73.0,56.9,29.65,NW,307,1.0,2.0,57,0.00,,,0.00,Wunderground v.1.15,2013-09-12 13:32:00,
2013-09-12 06:38:00,73.7,57.0,29.66,West,276,1.0,2.0,56,0.00,,,0.00,Wunderground v.1.15,2013-09-12 13:38:00,
2013-09-12 06:43:00,74.2,57.0,29.66,WSW,249,1.0,2.0,55,0.00,,,0.00,Wunderground v.1.15,2013-09-12 13:43:00,
2013-09-12 06:48:00,74.6,57.4,29.66,WSW,243,1.0,3.0,55,0.00,,,0.00,Wunderground v.1.15,2013-09-12 13:48:00,
2013-09-12 06:54:00,74.4,57.2,29.66,West,274,1.0,2.0,55,0.00,,,0.00,Wunderground v.1.15,2013-09-12 13:54:00,
2013-09-12 06:59:00,74.4,57.2,29.66,West,259,1.0,3.0,55,0.00,,,0.00,Wunderground v.1.15,2013-09-12 13:59:00,
2013-09-12 07:05:00,74.1,56.9,29.66,West,264,2.0,2.0,55,0.00,,,0.00,Wunderground v.1.15,2013-09-12 14:05:00,
2013-09-12 07:10:00,74.4,57.2,29.66,SSW,207,3.0,3.0,55,0.00,,,0.00,Wunderground v.1.15,2013-09-12 14:10:00,
2013-09-12 07:15:00,74.1,57.9,29.67,SW,218,3.0,3.0,57,0.00,,,0.00,Wunderground v.1.15,2013-09-12 14:15:00,
2013-09-12 07:21:00,74.9,58.1,29.67,SSW,200,1.0,3.0,56,0.00,,,0.00,Wunderground v.1.15,2013-09-12 14:21:00,
2013-09-12 07:26:00,76.0,58.7,29.67,South,170,1.0,3.0,55,0.00,,,0.00,Wunderground v.1.15,2013-09-12 14:26:00,
2013-09-12 07:32:00,76.4,58.0,29.67,SSW,203,1.0,2.0,53,0.00,,,0.00,Wunderground v.1.15,2013-09-12 14:32:00,
2013-09-12 07:37:00,76.9,58.5,29.67,SSW,206,1.0,2.0,53,0.00,,,0.00,Wunderground v.1.15,2013-09-12 14:37:00,
2013-09-12 07:43:00,76.5,58.6,29.67,SW,226,3.0,4.0,54,0.00,,,0.00,Wunderground v.1.15,2013-09-12 14:43:00,
2013-09-12 07:48:00,76.3,57.9,29.67,SW,225,4.0,6.0,53,0.00,,,0.00,Wunderground v.1.15,2013-09-12 14:48:00,
2013-09-12 07:54:00,76.2,57.8,29.67,SW,217,4.0,5.0,53,0.00,,,0.00,Wunderground v.1.15,2013-09-12 14:54:00,
2013-09-12 08:00:00,76.9,58.5,29.66,SW,214,3.0,3.0,53,0.00,,,0.00,Wunderground v.1.15,2013-09-12 15:00:00,
2013-09-12 08:05:00,77.4,57.9,29.66,SSW,197,4.0,7.0,51,0.00,,,0.00,Wunderground v.1.15,2013-09-12 15:05:00,
2013-09-12 08:11:00,77.1,58.1,29.66,SSW,195,6.0,6.0,52,0.00,,,0.00,Wunderground v.1.15,2013-09-12 15:11:00,
2013-09-12 08:16:00,77.5,58.5,29.67,SSW,202,5.0,6.0,52,0.00,,,0.00,Wunderground v.1.15,2013-09-12 15:16:00,
2013-09-12 08:21:00,77.7,58.1,29.67,SW,224,4.0,5.0,51,0.00,,,0.00,Wunderground v.1.15,2013-09-12 15:21:00,
2013-09-12 08:27:00,78.1,58.5,29.67,SSW,208,4.0,7.0,51,0.00,,,0.00,Wunderground v.1.15,2013-09-12 15:27:00,
2013-09-12 08:32:00,78.7,58.5,29.67,SSW,200,4.0,6.0,50,0.00,,,0.00,Wunderground v.1.15,2013-09-12 15:32:00,
2013-09-12 08:38:00,79.9,58.5,29.67,SW,219,3.0,6.0,48,0.00,,,0.00,Wunderground v.1.15,2013-09-12 15:38:00,
2013-09-12 08:44:00,80.3,58.2,29.67,SSW,211,3.0,4.0,47,0.00,,,0.00,Wunderground v.1.15,2013-09-12 15:44:00,
2013-09-12 08:49:00,80.8,58.7,29.67,SSE,159,3.0,5.0,47,0.00,,,0.00,Wunderground v.1.15,2013-09-12 15:49:00,
2013-09-12 08:55:00,81.4,58.6,29.67,ESE,117,3.0,6.0,46,0.00,,,0.00,Wunderground v.1.15,2013-09-12 15:55:00,
2013-09-12 09:00:00,81.1,58.4,29.67,SSE,152,5.0,5.0,46,0.00,,,0.00,Wunderground v.1.15,2013-09-12 16:00:00,
2013-09-12 09:06:00,82.1,58.7,29.67,SSW,208,4.0,5.0,45,0.00,,,0.00,Wunderground v.1.15,2013-09-12 16:06:00,
2013-09-12 09:12:00,82.6,58.5,29.67,WSW,253,3.0,4.0,44,0.00,,,0.00,Wunderground v.1.15,2013-09-12 16:12:00,
2013-09-12 09:17:00,82.5,58.4,29.67,SE,129,3.0,7.0,44,0.00,,,0.00,Wunderground v.1.15,2013-09-12 16:17:00,
2013-09-12 09:22:00,82.5,58.4,29.67,East,94,4.0,5.0,44,0.00,,,0.00,Wunderground v.1.15,2013-09-12 16:22:00,
2013-09-12 09:28:00,82.5,58.4,29.67,East,98,4.0,5.0,44,0.00,,,0.00,Wunderground v.1.15,2013-09-12 16:28:00,
2013-09-12 09:33:00,82.7,58.6,29.67,NE,45,3.0,4.0,44,0.00,,,0.00,Wunderground v.1.15,2013-09-12 16:33:00,
2013-09-12 09:39:00,84.1,58.5,29.67,South,172,2.0,6.0,42,0.00,,,0.00,Wunderground v.1.15,2013-09-12 16:39:00,
2013-09-12 09:44:00,84.8,58.5,29.67,ESE,121,3.0,6.0,41,0.00,,,0.00,Wunderground v.1.15,2013-09-12 16:44:00,
2013-09-12 09:50:00,84.9,58.6,29.67,SE,124,4.0,4.0,41,0.00,,,0.00,Wunderground v.1.15,2013-09-12 16:50:00,
2013-09-12 09:56:00,85.0,58.7,29.67,South,170,4.0,6.0,41,0.00,,,0.00,Wunderground v.1.15,2013-09-12 16:56:00,
2013-09-12 10:01:00,85.1,58.8,29.66,SSE,159,4.0,4.0,41,0.00,,,0.00,Wunderground v.1.15,2013-09-12 17:01:00,
2013-09-12 10:06:00,85.1,58.8,29.66,SE,141,4.0,6.0,41,0.00,,,0.00,Wunderground v.1.15,2013-09-12 17:06:00,
2013-09-12 10:12:00,85.5,58.4,29.66,North,356,3.0,4.0,40,0.00,,,0.00,Wunderground v.1.15,2013-09-12 17:12:00,
2013-09-12 10:18:00,86.1,59.0,29.66,WSW,246,2.0,5.0,40,0.00,,,0.00,Wunderground v.1.15,2013-09-12 17:18:00,
2013-09-12 10:23:00,86.6,58.7,29.66,South,176,3.0,4.0,39,0.00,,,0.00,Wunderground v.1.15,2013-09-12 17:23:00,
2013-09-12 10:29:00,86.0,58.2,29.66,South,177,5.0,9.0,39,0.00,,,0.00,Wunderground v.1.15,2013-09-12 17:29:00,
2013-09-12 10:34:00,86.3,58.4,29.65,SW,217,5.0,5.0,39,0.00,,,0.00,Wunderground v.1.15,2013-09-12 17:34:00,
2013-09-12 10:40:00,86.4,57.8,29.65,NNW,328,3.0,3.0,38,0.00,,,0.00,Wunderground v.1.15,2013-09-12 17:40:00,
2013-09-12 10:45:00,86.3,58.4,29.65,South,187,4.0,6.0,39,0.00,,,0.00,Wunderground v.1.15,2013-09-12 17:45:00,
2013-09-12 10:51:00,87.1,57.7,29.65,South,169,5.0,7.0,37,0.00,,,0.00,Wunderground v.1.15,2013-09-12 17:51:00,
2013-09-12 10:56:00,87.4,58.7,29.64,South,172,5.0,7.0,38,0.00,,,0.00,Wunderground v.1.15,2013-09-12 17:56:00,
2013-09-12 11:02:00,87.7,58.2,29.64,SW,224,6.0,7.0,37,0.00,,,0.00,Wunderground v.1.15,2013-09-12 18:02:00,
2013-09-12 11:07:00,87.8,58.3,29.64,SE,141,5.0,7.0,37,0.00,,,0.00,Wunderground v.1.15,2013-09-12 18:07:00,
2013-09-12 11:13:00,88.2,57.9,29.64,SW,236,5.0,8.0,36,0.00,,,0.00,Wunderground v.1.15,2013-09-12 18:13:00,
2013-09-12 11:18:00,89.0,58.6,29.64,WSW,249,5.0,8.0,36,0.00,,,0.00,Wunderground v.1.15,2013-09-12 18:18:00,
2013-09-12 11:24:00,88.7,59.1,29.63,WSW,256,6.0,11.0,37,0.00,,,0.00,Wunderground v.1.15,2013-09-12 18:24:00,
2013-09-12 11:30:00,88.7,59.1,29.63,WSW,249,6.0,6.0,37,0.00,,,0.00,Wunderground v.1.15,2013-09-12 18:30:00,
2013-09-12 11:35:00,87.9,59.1,29.63,South,191,6.0,8.0,38,0.00,,,0.00,Wunderground v.1.15,2013-09-12 18:35:00,
2013-09-12 11:41:00,88.0,59.2,29.63,SSE,167,7.0,12.0,38,0.00,,,0.00,Wunderground v.1.15,2013-09-12 18:41:00,
2013-09-12 11:47:00,87.9,58.4,29.63,SW,236,6.0,12.0,37,0.00,,,0.00,Wunderground v.1.15,2013-09-12 18:47:00,
2013-09-12 11:53:00,87.8,59.0,29.62,West,259,4.0,9.0,38,0.00,,,0.00,Wunderground v.1.15,2013-09-12 18:53:00,
2013-09-12 11:59:00,88.8,59.9,29.62,SSW,205,7.0,13.0,38,0.00,,,0.00,Wunderground v.1.15,2013-09-12 18:59:00,
2013-09-12 12:04:00,88.5,58.9,29.62,SW,226,8.0,15.0,37,0.00,,,0.00,Wunderground v.1.15,2013-09-12 19:04:00,
2013-09-12 12:10:00,89.3,59.6,29.61,South,184,5.0,5.0,37,0.00,,,0.00,Wunderground v.1.15,2013-09-12 19:10:00,
2013-09-12 12:16:00,90.0,59.5,29.61,SSW,198,6.0,11.0,36,0.00,,,0.00,Wunderground v.1.15,2013-09-12 19:16:00,
2013-09-12 12:21:00,89.5,59.0,29.61,SSW,198,8.0,10.0,36,0.00,,,0.00,Wunderground v.1.15,2013-09-12 19:21:00,
2013-09-12 12:27:00,90.2,58.8,29.60,SSW,200,7.0,11.0,35,0.00,,,0.00,Wunderground v.1.15,2013-09-12 19:27:00,
2013-09-12 12:32:00,90.2,58.8,29.60,WSW,241,7.0,11.0,35,0.00,,,0.00,Wunderground v.1.15,2013-09-12 19:32:00,
2013-09-12 12:38:00,91.0,58.7,29.60,West,274,6.0,11.0,34,0.00,,,0.00,Wunderground v.1.15,2013-09-12 19:38:00,
2013-09-12 12:44:00,90.0,58.7,29.59,SSW,213,7.0,13.0,35,0.00,,,0.00,Wunderground v.1.15,2013-09-12 19:44:00,
2013-09-12 12:49:00,90.8,58.6,29.59,South,188,8.0,13.0,34,0.00,,,0.00,Wunderground v.1.15,2013-09-12 19:49:00,
2013-09-12 12:55:00,90.2,57.2,29.59,NW,323,9.0,13.0,33,0.00,,,0.00,Wunderground v.1.15,2013-09-12 19:55:00,
2013-09-12 13:00:00,90.3,55.6,29.59,NW,306,8.0,8.0,31,0.00,,,0.00,Wunderground v.1.15,2013-09-12 20:00:00,
2013-09-12 13:06:00,90.6,56.7,29.58,West,281,6.0,8.0,32,0.00,,,0.00,Wunderground v.1.15,2013-09-12 20:06:00,
2013-09-12 13:12:00,90.8,56.9,29.58,NW,326,5.0,5.0,32,0.00,,,0.00,Wunderground v.1.15,2013-09-12 20:12:00,
2013-09-12 13:17:00,91.4,55.6,29.58,NE,54,4.0,8.0,30,0.00,,,0.00,Wunderground v.1.15,2013-09-12 20:17:00,
2013-09-12 13:23:00,91.1,56.3,29.58,NNE,18,4.0,6.0,31,0.00,,,0.00,Wunderground v.1.15,2013-09-12 20:23:00,
2013-09-12 13:29:00,90.8,56.0,29.57,West,274,6.0,13.0,31,0.00,,,0.00,Wunderground v.1.15,2013-09-12 20:29:00,
2013-09-12 13:35:00,90.4,55.6,29.57,North,11,6.0,9.0,31,0.00,,,0.00,Wunderground v.1.15,2013-09-12 20:35:00,
2013-09-12 13:40:00,89.8,55.1,29.57,NW,323,8.0,15.0,31,0.00,,,0.00,Wunderground v.1.15,2013-09-12 20:40:00,
2013-09-12 13:46:00,90.4,55.6,29.57,North,4,8.0,15.0,31,0.00,,,0.00,Wunderground v.1.15,2013-09-12 20:46:00,
2013-09-12 13:52:00,90.7,55.9,29.56,WNW,290,6.0,7.0,31,0.00,,,0.00,Wunderground v.1.15,2013-09-12 20:52:00,
2013-09-12 13:57:00,90.4,55.6,29.56,NNE,27,6.0,12.0,31,0.00,,,0.00,Wunderground v.1.15,2013-09-12 20:57:00,
2013-09-12 14:03:00,89.4,54.8,29.56,NE,34,9.0,10.0,31,0.00,,,0.00,Wunderground v.1.15,2013-09-12 21:03:00,
2013-09-12 14:09:00,88.6,55.0,29.56,ENE,74,7.0,10.0,32,0.00,,,0.00,Wunderground v.1.15,2013-09-12 21:09:00,
2013-09-12 14:15:00,88.3,54.7,29.55,NNW,333,6.0,12.0,32,0.00,,,0.00,Wunderground v.1.15,2013-09-12 21:15:00,
2013-09-12 14:20:00,88.6,55.0,29.55,NW,326,6.0,6.0,32,0.00,,,0.00,Wunderground v.1.15,2013-09-12 21:20:00,
2013-09-12 14:26:00,89.0,55.3,29.55,NE,45,5.0,9.0,32,0.00,,,0.00,Wunderground v.1.15,2013-09-12 21:26:00,
2013-09-12 14:31:00,89.7,54.1,29.55,NNW,345,5.0,6.0,30,0.00,,,0.00,Wunderground v.1.15,2013-09-12 21:31:00,
2013-09-12 14:37:00,90.6,54.9,29.54,NW,309,5.0,7.0,30,0.00,,,0.00,Wunderground v.1.15,2013-09-12 21:37:00,
2013-09-12 14:43:00,90.8,54.2,29.54,East,93,3.0,4.0,29,0.00,,,0.00,Wunderground v.1.15,2013-09-12 21:43:00,
2013-09-12 14:48:00,91.1,54.4,29.54,East,79,3.0,6.0,29,0.00,,,0.00,Wunderground v.1.15,2013-09-12 21:48:00,
2013-09-12 14:54:00,91.5,54.8,29.53,SSE,153,3.0,3.0,29,0.00,,,0.00,Wunderground v.1.15,2013-09-12 21:54:00,
2013-09-12 15:00:00,91.8,54.1,29.53,NNW,347,4.0,6.0,28,0.00,,,0.00,Wunderground v.1.15,2013-09-12 22:00:00,
2013-09-12 15:05:00,91.2,54.5,29.53,WSW,243,6.0,10.0,29,0.00,,,0.00,Wunderground v.1.15,2013-09-12 22:05:00,
2013-09-12 15:11:00,91.2,54.5,29.53,NNE,19,7.0,12.0,29,0.00,,,0.00,Wunderground v.1.15,2013-09-12 22:11:00,
2013-09-12 15:16:00,91.6,54.8,29.53,West,263,6.0,12.0,29,0.00,,,0.00,Wunderground v.1.15,2013-09-12 22:16:00,
2013-09-12 15:21:00,91.8,55.0,29.52,NNE,27,5.0,8.0,29,0.00,,,0.00,Wunderground v.1.15,2013-09-12 22:21:00,
2013-09-12 15:27:00,91.5,54.8,29.52,North,350,5.0,8.0,29,0.00,,,0.00,Wunderground v.1.15,2013-09-12 22:27:00,
2013-09-12 15:33:00,91.6,54.8,29.52,NNW,345,5.0,11.0,29,0.00,,,0.00,Wunderground v.1.15,2013-09-12 22:33:00,
2013-09-12 15:39:00,91.9,55.1,29.52,NNW,347,8.0,11.0,29,0.00,,,0.00,Wunderground v.1.15,2013-09-12 22:39:00,
2013-09-12 15:44:00,91.6,54.8,29.52,NNW,336,7.0,13.0,29,0.00,,,0.00,Wunderground v.1.15,2013-09-12 22:44:00,
2013-09-12 15:50:00,90.5,54.8,29.52,NW,307,7.0,7.0,30,0.00,,,0.00,Wunderground v.1.15,2013-09-12 22:50:00,
2013-09-12 15:55:00,90.6,54.0,29.52,West,262,8.0,13.0,29,0.00,,,0.00,Wunderground v.1.15,2013-09-12 22:55:00,
2013-09-12 16:01:00,91.0,54.3,29.52,NNW,339,5.0,6.0,29,0.00,,,0.00,Wunderground v.1.15,2013-09-12 23:01:00,
2013-09-12 16:06:00,91.0,54.3,29.52,North,354,4.0,6.0,29,0.00,,,0.00,Wunderground v.1.15,2013-09-12 23:06:00,
2013-09-12 16:12:00,91.4,54.7,29.52,West,269,4.0,8.0,29,0.00,,,0.00,Wunderground v.1.15,2013-09-12 23:12:00,
2013-09-12 16:18:00,91.4,54.7,29.52,NNE,27,5.0,8.0,29,0.00,,,0.00,Wunderground v.1.15,2013-09-12 23:18:00,
2013-09-12 16:23:00,92.5,54.7,29.52,WNW,285,4.0,5.0,28,0.00,,,0.00,Wunderground v.1.15,2013-09-12 23:23:00,
2013-09-12 16:29:00,92.5,53.7,29.52,NNE,30,3.0,5.0,27,0.00,,,0.00,Wunderground v.1.15,2013-09-12 23:29:00,
2013-09-12 16:35:00,92.2,53.4,29.52,WNW,295,4.0,8.0,27,0.00,,,0.00,Wunderground v.1.15,2013-09-12 23:35:00,
2013-09-12 16:40:00,92.0,53.2,29.52,NNW,332,5.0,6.0,27,0.00,,,0.00,Wunderground v.1.15,2013-09-12 23:40:00,
2013-09-12 16:46:00,91.1,52.5,29.52,NNE,17,6.0,9.0,27,0.00,,,0.00,Wunderground v.1.15,2013-09-12 23:46:00,
2013-09-12 16:51:00,90.3,51.8,29.51,NNW,347,9.0,9.0,27,0.00,,,0.00,Wunderground v.1.15,2013-09-12 23:51:00,
2013-09-12 16:57:00,91.1,52.5,29.51,WNW,288,9.0,16.0,27,0.00,,,0.00,Wunderground v.1.15,2013-09-12 23:57:00,
2013-09-12 17:03:00,91.0,51.4,29.51,NW,308,5.0,8.0,26,0.00,,,0.00,Wunderground v.1.15,2013-09-13 00:03:00,
2013-09-12 17:08:00,90.3,50.8,29.51,WNW,282,6.0,10.0,26,0.00,,,0.00,Wunderground v.1.15,2013-09-13 00:08:00,
2013-09-12 17:14:00,90.0,50.5,29.51,WSW,255,7.0,8.0,26,0.00,,,0.00,Wunderground v.1.15,2013-09-13 00:14:00,
2013-09-12 17:19:00,90.0,50.5,29.51,NE,37,6.0,14.0,26,0.00,,,0.00,Wunderground v.1.15,2013-09-13 00:19:00,
2013-09-12 17:25:00,89.7,50.3,29.51,West,281,8.0,16.0,26,0.00,,,0.00,Wunderground v.1.15,2013-09-13 00:25:00,
2013-09-12 17:30:00,89.4,50.0,29.51,NNE,15,7.0,11.0,26,0.00,,,0.00,Wunderground v.1.15,2013-09-13 00:30:00,
2013-09-12 17:36:00,89.1,49.7,29.51,North,355,8.0,16.0,26,0.00,,,0.00,Wunderground v.1.15,2013-09-13 00:36:00,
2013-09-12 17:41:00,88.7,50.4,29.51,NW,319,10.0,10.0,27,0.00,,,0.00,Wunderground v.1.15,2013-09-13 00:41:00,
2013-09-12 17:47:00,88.3,50.1,29.52,WNW,301,9.0,12.0,27,0.00,,,0.00,Wunderground v.1.15,2013-09-13 00:47:00,
2013-09-12 17:53:00,87.9,49.7,29.52,North,6,7.0,9.0,27,0.00,,,0.00,Wunderground v.1.15,2013-09-13 00:53:00,
2013-09-12 17:58:00,87.7,50.6,29.52,North,353,6.0,9.0,28,0.00,,,0.00,Wunderground v.1.15,2013-09-13 00:58:00,
2013-09-12 18:04:00,87.4,50.3,29.52,West,269,6.0,11.0,28,0.00,,,0.00,Wunderground v.1.15,2013-09-13 01:04:00,
2013-09-12 18:09:00,87.4,50.3,29.52,NW,307,7.0,11.0,28,0.00,,,0.00,Wunderground v.1.15,2013-09-13 01:09:00,
2013-09-12 18:15:00,87.2,50.1,29.52,NW,315,7.0,7.0,28,0.00,,,0.00,Wunderground v.1.15,2013-09-13 01:15:00,
2013-09-12 18:21:00,87.0,50.9,29.52,West,277,6.0,7.0,29,0.00,,,0.00,Wunderground v.1.15,2013-09-13 01:21:00,
2013-09-12 18:26:00,86.8,50.7,29.52,WNW,301,6.0,8.0,29,0.00,,,0.00,Wunderground v.1.15,2013-09-13 01:26:00,
2013-09-12 18:31:00,86.7,50.6,29.52,NW,321,7.0,10.0,29,0.00,,,0.00,Wunderground v.1.15,2013-09-13 01:31:00,
2013-09-12 18:37:00,86.5,51.4,29.52,West,267,7.0,11.0,30,0.00,,,0.00,Wunderground v.1.15,2013-09-13 01:37:00,
2013-09-12 18:42:00,86.4,51.3,29.52,NW,312,8.0,8.0,30,0.00,,,0.00,Wunderground v.1.15,2013-09-13 01:42:00,
2013-09-12 18:48:00,86.2,52.0,29.52,NW,319,7.0,9.0,31,0.00,,,0.00,Wunderground v.1.15,2013-09-13 01:48:00,
2013-09-12 18:53:00,86.0,51.8,29.52,NW,323,6.0,8.0,31,0.00,,,0.00,Wunderground v.1.15,2013-09-13 01:53:00,
2013-09-12 18:59:00,85.8,51.7,29.52,NNW,328,7.0,14.0,31,0.00,,,0.00,Wunderground v.1.15,2013-09-13 01:59:00,
2013-09-12 19:05:00,85.6,51.5,29.53,NW,315,8.0,13.0,31,0.00,,,0.00,Wunderground v.1.15,2013-09-13 02:05:00,
2013-09-12 19:10:00,85.4,51.3,29.53,NW,315,7.0,8.0,31,0.00,,,0.00,Wunderground v.1.15,2013-09-13 02:10:00,
2013-09-12 19:16:00,85.3,50.4,29.53,NNW,332,7.0,12.0,30,0.00,,,0.00,Wunderground v.1.15,2013-09-13 02:16:00,
2013-09-12 19:22:00,85.3,50.4,29.53,NW,326,10.0,12.0,30,0.00,,,0.00,Wunderground v.1.15,2013-09-13 02:22:00,
2013-09-12 19:27:00,85.2,50.3,29.53,NW,314,11.0,13.0,30,0.00,,,0.00,Wunderground v.1.15,2013-09-13 02:27:00,
2013-09-12 19:33:00,85.0,49.2,29.54,NNW,343,9.0,10.0,29,0.00,,,0.00,Wunderground v.1.15,2013-09-13 02:33:00,
2013-09-12 19:39:00,84.9,49.1,29.54,North,355,8.0,10.0,29,0.00,,,0.00,Wunderground v.1.15,2013-09-13 02:39:00,
2013-09-12 19:44:00,84.8,49.0,29.54,WNW,301,9.0,10.0,29,0.00,,,0.00,Wunderground v.1.15,2013-09-13 02:44:00,
2013-09-12 19:50:00,84.6,48.8,29.54,NW,309,10.0,10.0,29,0.00,,,0.00,Wunderground v.1.15,2013-09-13 02:50:00,
2013-09-12 19:55:00,84.5,48.8,29.55,NNW,339,9.0,11.0,29,0.00,,,0.00,Wunderground v.1.15,2013-09-13 02:55:00,
2013-09-12 20:01:00,84.5,48.8,29.55,WNW,297,8.0,9.0,29,0.00,,,0.00,Wunderground v.1.15,2013-09-13 03:01:00,
2013-09-12 20:07:00,84.4,48.7,29.55,NW,304,9.0,11.0,29,0.00,,,0.00,Wunderground v.1.15,2013-09-13 03:07:00,
2013-09-12 20:12:00,84.3,48.6,29.55,NNW,337,8.0,10.0,29,0.00,,,0.00,Wunderground v.1.15,2013-09-13 03:12:00,
2013-09-12 20:18:00,84.3,49.5,29.56,North,357,7.0,10.0,30,0.00,,,0.00,Wunderground v.1.15,2013-09-13 03:18:00,
2013-09-12 20:24:00,84.0,50.1,29.56,ENE,64,5.0,7.0,31,0.00,,,0.00,Wunderground v.1.15,2013-09-13 03:24:00,
2013-09-12 20:29:00,83.8,50.8,29.57,NE,54,3.0,7.0,32,0.00,,,0.00,Wunderground v.1.15,2013-09-13 03:29:00,
2013-09-12 20:35:00,83.4,50.4,29.57,NNE,19,1.0,3.0,32,0.00,,,0.00,Wunderground v.1.15,2013-09-13 03:35:00,
2013-09-12 20:40:00,83.1,50.2,29.57,WNW,298,1.0,1.0,32,0.00,,,0.00,Wunderground v.1.15,2013-09-13 03:40:00,
2013-09-12 20:46:00,82.9,50.0,29.57,WNW,298,0.0,1.0,32,0.00,,,0.00,Wunderground v.1.15,2013-09-13 03:46:00,
2013-09-12 20:51:00,82.7,49.8,29.57,SE,134,0.0,0.0,32,0.00,,,0.00,Wunderground v.1.15,2013-09-13 03:51:00,
2013-09-12 20:57:00,82.3,50.3,29.57,ENE,75,0.0,2.0,33,0.00,,,0.00,Wunderground v.1.15,2013-09-13 03:57:00,
2013-09-12 21:01:00,82.2,50.2,29.57,ENE,75,1.0,1.0,33,0.00,,,0.00,Wunderground v.1.15,2013-09-13 04:01:00,
2013-09-12 21:02:00,82.2,49.4,29.57,ENE,75,1.0,1.0,32,0.00,,,0.00,Wunderground v.1.15,2013-09-13 04:02:00,
2013-09-12 21:06:00,82.2,50.2,29.57,ESE,115,0.0,1.0,33,0.00,,,0.00,Wunderground v.1.15,2013-09-13 04:06:00,
2013-09-12 21:07:00,82.2,50.2,29.57,ESE,105,1.0,2.0,33,0.00,,,0.00,Wunderground v.1.15,2013-09-13 04:07:00,
2013-09-12 21:11:00,81.9,50.8,29.58,ESE,105,1.0,1.0,34,0.00,,,0.00,Wunderground v.1.15,2013-09-13 04:11:00,
2013-09-12 21:15:00,81.7,50.6,29.58,NE,53,1.0,4.0,34,0.00,,,0.00,Wunderground v.1.15,2013-09-13 04:15:00,
2013-09-12 21:20:00,81.8,50.7,29.58,NNE,19,2.0,3.0,34,0.00,,,0.00,Wunderground v.1.15,2013-09-13 04:20:00,
2013-09-12 21:26:00,81.9,50.0,29.58,NNE,31,3.0,5.0,33,0.00,,,0.00,Wunderground v.1.15,2013-09-13 04:26:00,
2013-09-12 21:31:00,82.1,50.1,29.58,ENE,68,3.0,3.0,33,0.00,,,0.00,Wunderground v.1.15,2013-09-13 04:31:00,
2013-09-12 21:37:00,82.0,50.1,29.58,ENE,65,3.0,5.0,33,0.00,,,0.00,Wunderground v.1.15,2013-09-13 04:37:00,
2013-09-12 21:42:00,81.8,50.7,29.58,NE,50,4.0,4.0,34,0.00,,,0.00,Wunderground v.1.15,2013-09-13 04:42:00,
2013-09-12 21:48:00,81.5,50.4,29.58,NE,37,3.0,5.0,34,0.00,,,0.00,Wunderground v.1.15,2013-09-13 04:48:00,
2013-09-12 21:54:00,81.5,50.4,29.58,NE,43,4.0,4.0,34,0.00,,,0.00,Wunderground v.1.15,2013-09-13 04:54:00,
2013-09-12 21:59:00,81.5,50.4,29.58,North,8,3.0,4.0,34,0.00,,,0.00,Wunderground v.1.15,2013-09-13 04:59:00,
2013-09-12 22:05:00,81.1,50.9,29.58,North,6,2.0,3.0,35,0.00,,,0.00,Wunderground v.1.15,2013-09-13 05:05:00,
2013-09-12 22:10:00,81.0,50.8,29.58,NNW,346,3.0,3.0,35,0.00,,,0.00,Wunderground v.1.15,2013-09-13 05:10:00,
2013-09-12 22:16:00,80.6,51.2,29.58,NNE,22,3.0,3.0,36,0.00,,,0.00,Wunderground v.1.15,2013-09-13 05:16:00,
2013-09-12 22:21:00,80.7,50.5,29.58,North,354,3.0,4.0,35,0.00,,,0.00,Wunderground v.1.15,2013-09-13 05:21:00,
2013-09-12 22:27:00,80.7,51.3,29.58,North,1,4.0,5.0,36,0.00,,,0.00,Wunderground v.1.15,2013-09-13 05:27:00,
2013-09-12 22:33:00,80.6,51.2,29.58,North,352,4.0,5.0,36,0.00,,,0.00,Wunderground v.1.15,2013-09-13 05:33:00,
2013-09-12 22:38:00,80.7,51.3,29.58,NNE,13,4.0,5.0,36,0.00,,,0.00,Wunderground v.1.15,2013-09-13 05:38:00,
2013-09-12 22:44:00,80.7,51.3,29.58,North,353,5.0,6.0,36,0.00,,,0.00,Wunderground v.1.15,2013-09-13 05:44:00,
2013-09-12 22:49:00,80.2,51.6,29.58,NNW,340,5.0,6.0,37,0.00,,,0.00,Wunderground v.1.15,2013-09-13 05:49:00,
2013-09-12 22:55:00,79.6,51.8,29.58,NNW,332,5.0,6.0,38,0.00,,,0.00,Wunderground v.1.15,2013-09-13 05:55:00,
2013-09-12 23:00:00,79.3,51.5,29.58,NW,315,6.0,6.0,38,0.00,,,0.00,Wunderground v.1.15,2013-09-13 06:00:00,
2013-09-12 23:06:00,79.2,51.4,29.58,NNW,330,4.0,6.0,38,0.00,,,0.00,Wunderground v.1.15,2013-09-13 06:06:00,
2013-09-12 23:12:00,79.6,51.0,29.57,NNW,328,3.0,3.0,37,0.00,,,0.00,Wunderground v.1.15,2013-09-13 06:12:00,
2013-09-12 23:17:00,79.6,51.8,29.58,SSE,153,2.0,4.0,38,0.00,,,0.00,Wunderground v.1.15,2013-09-13 06:17:00,
2013-09-12 23:23:00,78.2,51.9,29.58,West,271,2.0,2.0,40,0.00,,,0.00,Wunderground v.1.15,2013-09-13 06:23:00,
2013-09-12 23:28:00,77.6,54.6,29.58,NW,309,1.0,3.0,45,0.00,,,0.00,Wunderground v.1.15,2013-09-13 06:28:00,
2013-09-12 23:34:00,77.7,56.4,29.57,WNW,293,2.0,3.0,48,0.00,,,0.00,Wunderground v.1.15,2013-09-13 06:34:00,
2013-09-12 23:40:00,77.8,56.5,29.58,West,278,2.0,2.0,48,0.00,,,0.00,Wunderground v.1.15,2013-09-13 06:40:00,
2013-09-12 23:46:00,77.5,55.1,29.58,West,266,1.0,2.0,46,0.00,,,0.00,Wunderground v.1.15,2013-09-13 06:46:00,
2013-09-12 23:51:00,77.6,59.6,29.57,West,260,1.0,2.0,54,0.00,,,0.00,Wunderground v.1.15,2013-09-13 06:51:00,
2013-09-12 23:57:00,77.5,58.5,29.57,WNW,303,2.0,3.0,52,0.00,,,0.00,Wunderground v.1.15,2013-09-13 06:57:00,